RH
5 4 4 4 4 4 4 3 3 3 2 2 2 2 2 2 4 8 11 13 13 12 11 11 10 10 10 10 10 10 9 9 10 10 10 10 10 10 10 10 10 10 11 11 12 12 11 11 11 11 11 11 11 12 12 14 14 14 15 14 17 23 22 19 20 20 20 25 31 34 34 31 28 30 35 41 47 51 55 59 59 63 66 63 73 80 55
5 5 4 4 4 4 4 3 3 3 3 2 2 2 2 2 2 4 9 12 13 12 11 11 11 11 11 10 10 10 9 9 9 9 10 10 10 10 10 10 10 10 11 11 11 11 11 11 11 11 11 10 10 11 11 13 14 14 14 14 16 20 21 22 25 27 28 27 29 32 29 26 26 29 34 38 42 47 51 54 61 66 63 63 79 79 50
5 5 5 4 4 4 4 4 3 4 3 3 3 2 2 2 2 3 6 10 12 12 11 11 11 11 11 11 11 10 9 9 9 9 9 9 10 10 10 11 11 10 11 11 11 11 11 11 11 11 11 10 10 10 11 12 13 13 14 14 14 15 16 19 24 32 38 35 30 27 23 22 24 27 31 34 37 42 46 52 63 67 62 61 67 65 47
5 5 5 5 4 4 4 4 3 4 4 3 3 2 2 2 2 3 4 7 10 11 12 12 11 12 11 11 11 11 10 10 9 10 9 9 10 10 10 11 11 11 11 11 11 11 11 11 11 11 11 11 10 10 10 11 12 13 13 13 13 13 13 16 18 20 24 24 21 20 21 21 21 24 29 31 34 38 41 49 55 55 58 55 48 51 54
6 6 5 5 5 4 4 4 3 3 4 4 3 3 2 2 2 2 3 5 7 9 12 12 12 12 12 12 12 11 11 11 10 10 10 9 10 10 10 11 11 11 11 11 11 11 11 11 11 11 11 10 10 10 10 11 12 12 12 13 13 12 12 15 15 13 14 15 16 17 21 20 18 22 27 28 32 36 37 42 42 44 57 54 41 50 59
6 6 5 5 5 5 4 4 4 3 3 4 3 3 3 2 2 2 3 4 6 8 11 13 13 13 12 12 12 12 12 11 11 10 10 10 10 10 10 10 10 11 11 11 11 11 11 11 11 11 11 10 10 10 9 10 11 11 12 12 12 13 13 13 12 11 12 14 16 17 19 18 17 21 26 28 31 33 34 37 38 44 54 51 45 54 56
6 6 6 5 5 5 5 4 4 4 4 4 3 3 3 3 2 2 2 3 5 7 11 13 13 13 13 13 13 13 13 12 12 11 11 10 10 10 10 10 10 10 10 11 11 11 11 11 12 11 10 10 10 8 9 10 10 11 12 12 13 14 13 13 13 11 10 13 14 15 17 16 15 20 25 28 29 30 33 36 38 43 46 44 50 54 47
6 6 6 5 5 5 5 5 4 4 4 4 3 3 3 3 3 2 2 3 4 6 9 13 14 14 14 14 13 14 14 13 13 12 12 11 11 11 11 10 10 10 10 10 11 11 11 12 12 12 11 11 10 9 10 10 10 11 11 12 13 14 14 15 14 11 10 12 12 14 17 16 14 18 24 28 30 31 32 33 37 41 41 41 50 50 42
6 6 6 6 6 5 5 5 5 4 4 4 3 3 3 3 3 3 2 2 3 4 7 10 13 14 14 13 14 14 14 14 14 13 13 13 12 12 12 11 11 11 10 10 10 11 11 11 12 12 11 11 10 10 10 10 10 11 11 12 13 14 15 15 16 17 12 10 14 15 15 15 17 21 24 25 28 29 30 32 34 35 37 42 47 46 43
6 6 6 6 6 5 5 5 4 4 4 4 3 3 3 3 3 3 3 3 3 4 4 6 8 11 12 12 13 14 14 14 15 14 14 13 13 13 12 12 12 12 11 11 11 11 11 11 12 12 11 10 10 10 9 10 11 11 12 13 12 14 15 14 19 22 14 11 17 14 14 25 29 23 18 17 21 27 29 29 28 29 35 41 43 42 45
7 7 6 7 6 6 5 5 5 4 4 4 4 3 3 3 3 3 3 3 3 3 3 4 5 7 9 10 12 13 14 14 14 13 13 13 13 13 13 13 13 12 12 12 11 11 11 11 12 11 11 10 9 9 9 9 11 11 12 13 13 14 15 14 19 22 15 14 17 14 24 40 33 16 14 17 22 28 30 25 24 26 31 39 43 44 47
8 7 7 7 7 6 6 5 5 5 4 4 4 4 3 3 3 3 3 3 3 3 3 3 4 4 5 6 8 10 11 12 12 12 13 13 13 14 13 13 13 13 13 13 12 12 12 12 12 11 11 11 9 9 9 10 11 11 11 13 13 13 14 14 17 20 18 17 20 22 29 30 18 10 16 21 23 26 26 21 20 24 30 40 46 44 45
8 8 8 8 7 7 7 7 6 5 5 4 4 4 4 4 4 3 3 3 3 3 3 3 3 4 4 4 5 6 7 8 8 9 10 11 13 13 13 13 13 13 14 13 12 12 12 12 12 12 11 11 9 9 10 10 11 11 11 12 12 13 14 14 15 19 21 22 28 30 23 14 12 17 20 21 22 23 22 19 16 20 32 42 42 38 40
9 9 9 9 8 8 7 7 7 7 6 5 5 4 4 4 4 4 3 4 4 3 3 4 4 4 4 4 5 5 5 5 6 7 8 10 11 12 13 13 14 14 14 14 13 13 13 12 12 12 11 11 10 10 10 10 10 10 11 11 11 12 14 14 16 21 24 26 27 25 18 14 17 20 20 21 21 20 22 21 15 21 37 42 37 34 35
7 9 9 9 9 9 9 8 8 8 8 7 6 6 5 4 4 4 4 4 4 4 4 4 4 5 5 5 5 5 5 5 5 6 7 9 10 12 13 14 14 14 14 14 14 14 13 13 13 13 12 12 11 11 11 10 10 10 11 11 11 13 13 15 18 20 23 28 31 31 29 21 16 17 19 20 20 20 23 22 19 27 37 35 30 31 29
6 7 8 9 9 9 10 10 9 9 10 9 8 7 6 5 5 4 5 4 5 5 6 5 5 5 5 5 5 5 6 5 6 7 7 8 11 12 13 14 14 14 14 14 14 14 14 14 14 14 14 13 13 13 12 11 10 10 11 11 11 12 13 15 18 17 18 26 36 40 34 20 13 16 19 19 20 20 22 24 26 29 29 25 25 27 25
8 6 6 8 10 10 10 10 11 11 10 10 10 9 8 7 6 5 5 5 5 6 6 7 7 7 7 7 7 7 7 6 7 8 8 9 11 12 13 13 14 14 14 15 14 14 15 15 15 15 15 14 15 15 13 12 11 10 11 11 11 12 15 17 17 16 17 24 32 32 23 14 14 18 18 19 20 20 26 34 32 24 22 24 25 25 24
9 7 7 6 8 9 10 10 10 11 11 11 12 11 10 9 8 7 7 6 6 6 6 6 7 7 7 7 7 8 8 8 9 10 10 10 11 12 13 14 14 14 14 14 15 15 15 15 15 16 16 15 15 15 14 13 13 12 12 12 12 13 17 19 19 17 18 23 28 24 16 14 17 18 17 19 20 21 28 33 26 19 22 25 24 24 23
20 10 7 7 7 8 10 11 11 11 12 12 12 12 12 11 11 10 9 8 7 7 7 7 7 7 7 8 8 9 9 9 10 11 11 12 12 12 14 13 13 14 14 15 15 15 16 15 15 16 17 16 16 16 15 14 14 13 12 13 14 15 17 19 19 20 22 26 27 24 19 17 18 16 16 18 20 21 23 22 19 20 22 22 20 21 22
43 25 12 7 6 6 7 10 11 11 11 12 12 12 12 12 13 12 11 10 9 9 8 7 7 8 8 8 8 9 9 10 11 11 12 12 13 13 14 13 13 15 16 15 15 16 16 16 16 17 17 16 17 17 16 15 14 13 13 13 14 16 18 18 18 21 26 29 28 25 21 17 15 15 16 17 18 19 19 18 18 19 19 19 19 18 19
62 52 31 14 7 6 7 7 10 11 11 11 12 12 12 12 12 13 13 12 11 10 10 10 9 9 9 9 10 10 10 11 11 11 12 13 13 14 14 15 16 16 16 16 15 16 17 17 17 18 17 17 17 16 16 16 14 13 13 13 13 15 17 18 19 20 23 25 22 17 15 14 14 15 16 16 16 17 18 18 17 17 18 19 17 16 17
61 67 58 36 15 7 7 6 7 9 11 11 11 11 12 12 12 12 13 13 12 11 11 11 11 11 11 10 11 11 11 12 12 12 13 14 14 15 15 15 16 16 15 16 16 17 17 17 17 17 17 17 16 16 16 17 15 13 13 13 13 14 14 15 15 16 17 18 15 12 12 14 15 14 14 15 15 17 19 19 17 17 18 17 15 15 16
58 67 73 62 37 17 9 7 7 7 8 11 12 11 11 11 12 12 12 13 13 13 12 11 11 11 12 12 12 11 12 12 12 13 14 14 14 14 14 14 15 15 15 15 16 16 17 17 16 17 16 16 16 15 16 16 14 13 13 13 12 11 12 13 12 12 14 14 12 11 13 14 13 13 14 15 16 17 18 18 17 16 16 15 14 15 16
66 67 74 77 66 44 22 10 7 7 6 8 10 12 12 12 12 12 12 12 12 13 13 12 11 11 11 11 12 12 13 13 13 13 14 14 13 14 14 14 15 15 15 15 15 15 15 15 15 15 14 14 14 15 15 15 14 14 15 13 10 9 11 12 11 11 13 12 10 10 14 14 12 13 15 15 16 17 17 16 16 15 14 14 14 15 16
67 73 76 80 82 74 53 29 14 8 7 7 7 9 12 12 12 12 11 12 12 12 13 13 12 11 11 11 11 12 12 13 13 13 14 14 14 14 14 15 15 14 14 14 13 13 13 13 13 13 12 13 14 14 14 13 13 14 14 11 9 10 11 11 9 10 11 11 10 11 14 14 13 12 14 15 15 15 16 15 14 14 13 14 15 16 16
48 68 80 83 84 86 79 61 39 21 11 7 6 7 9 11 12 13 12 12 12 11 12 12 12 12 11 11 10 11 11 12 12 12 13 13 13 13 13 13 13 13 13 12 12 12 12 12 12 12 11 12 12 12 11 12 11 12 11 9 8 9 9 9 9 10 10 10 10 12 14 14 12 12 14 15 15 15 15 15 14 14 14 15 16 16 16
23 46 72 86 87 86 86 82 68 48 30 17 8 5 6 8 10 11 12 13 13 12 12 11 11 11 11 11 10 10 11 12 12 12 12 12 12 12 12 12 12 12 12 12 12 12 12 11 12 12 11 12 11 11 11 11 11 11 9 7 8 8 8 9 11 11 10 10 11 13 15 14 11 12 14 15 15 15 15 14 13 14 15 15 15 15 16
9 24 48 72 84 88 88 87 82 71 56 39 23 12 7 5 6 9 11 11 12 13 13 12 11 11 11 11 11 11 11 11 10 10 11 11 11 12 12 12 12 12 12 12 12 12 12 12 12 12 12 12 12 11 11 11 11 10 8 6 7 8 8 10 11 10 11 11 11 14 16 13 10 11 13 13 14 15 14 14 14 15 15 16 15 15 15
5 12 27 49 71 86 89 88 88 85 76 63 50 35 23 13 7 5 7 9 10 11 12 12 12 12 12 11 12 12 12 12 11 11 11 11 11 12 12 12 12 12 12 13 13 13 13 13 13 13 13 13 13 13 12 13 12 10 7 5 7 8 8 9 11 11 11 11 11 13 14 11 9 10 11 12 14 15 14 14 15 15 15 15 15 14 14
2 9 18 30 50 71 83 86 89 92 90 84 75 64 53 42 26 11 6 6 6 7 10 11 11 12 12 12 12 12 12 12 12 12 12 12 11 11 11 11 12 12 12 13 13 13 14 13 13 14 13 14 16 16 15 16 14 10 6 5 7 8 9 9 10 11 11 11 12 13 12 9 9 10 10 11 13 14 14 15 15 15 15 15 15 14 14
1 7 15 23 36 56 75 86 89 93 98 98 92 84 77 70 55 38 26 18 10 6 7 8 9 11 11 11 11 12 11 12 12 12 12 12 12 12 11 11 11 12 13 13 14 14 14 13 14 14 13 14 17 18 17 17 15 9 5 6 8 9 9 10 10 10 11 11 12 12 10 9 10 10 10 11 13 14 15 15 15 15 15 15 15 14 13
2 5 14 26 35 48 68 85 91 93 96 98 98 95 93 88 80 71 63 53 39 28 19 13 8 7 8 9 10 10 11 11 11 11 12 12 11 11 11 11 11 12 12 13 13 13 13 13 13 13 13 14 16 17 16 15 13 9 6 6 8 8 9 9 9 10 11 11 12 12 9 9 11 11 10 11 13 14 15 16 15 15 16 15 15 14 13
3 4 13 28 38 47 60 77 88 92 93 94 95 96 97 95 93 92 88 79 69 59 49 37 23 12 6 5 6 7 8 10 11 11 12 12 12 13 12 11 12 11 11 11 12 11 11 12 12 12 12 13 15 16 15 13 10 8 7 7 7 8 9 9 10 11 11 11 11 11 10 9 10 11 11 12 13 14 15 15 15 15 15 15 15 14 14
3 5 11 22 36 47 56 68 80 86 87 88 90 93 95 95 94 95 96 93 86 78 69 59 47 31 17 10 7 5 5 6 6 8 10 10 11 13 13 13 13 13 12 12 12 12 11 11 11 11 11 11 13 15 13 10 8 8 8 7 8 9 9 10 11 12 11 10 10 10 10 10 10 11 11 12 13 14 15 15 16 16 16 16 16 15 14
3 5 7 16 31 46 55 64 75 79 81 82 83 85 88 89 90 92 94 95 94 88 80 73 65 51 36 26 19 13 10 8 6 5 5 7 9 11 13 14 14 14 14 14 13 12 12 12 12 12 11 12 13 12 10 9 9 9 9 8 9 10 11 11 12 12 11 10 9 9 10 11 11 11 12 12 13 14 15 15 16 16 16 16 16 15 15
4 4 5 11 23 40 55 68 75 78 81 84 84 83 83 83 86 89 89 89 90 89 86 85 76 59 48 45 39 30 27 25 20 14 10 7 5 7 9 11 12 13 13 12 10 10 11 12 14 13 12 12 11 10 9 9 9 9 9 9 9 10 11 11 13 13 12 11 10 9 11 12 12 12 13 13 14 15 15 15 16 17 16 16 16 16 15
5 5 6 7 12 29 55 73 77 77 81 83 83 83 82 78 78 81 83 86 88 86 86 86 76 60 58 64 61 53 52 52 48 42 35 23 13 9 8 8 8 10 9 7 6 8 10 12 12 11 8 8 7 7 7 7 7 7 8 8 8 9 9 10 11 12 12 11 10 10 11 12 12 12 13 13 14 15 15 15 16 17 17 16 16 16 15
5 5 7 7 8 22 46 63 68 71 76 78 79 83 85 79 71 64 63 69 75 76 77 75 64 54 61 72 70 66 67 69 67 66 61 47 31 21 16 13 13 15 13 10 8 10 12 12 10 8 7 7 7 7 7 7 7 8 9 10 10 10 9 9 11 12 12 11 10 10 11 11 11 12 12 12 13 14 15 16 17 18 18 17 16 17 16
7 6 7 8 10 19 33 46 57 67 73 75 80 89 93 91 84 74 65 59 56 58 61 58 49 46 57 68 70 71 74 76 78 80 77 66 51 38 30 26 25 24 20 15 12 14 16 13 10 10 10 11 12 13 12 12 13 14 13 13 15 15 12 10 11 12 12 12 11 10 11 12 12 12 12 12 12 13 14 16 17 18 18 17 17 17 16
8 8 8 10 14 18 22 30 47 66 76 78 81 86 87 86 85 84 76 61 50 50 54 50 43 45 54 64 72 77 78 78 82 85 83 76 66 55 45 38 35 33 27 22 22 22 19 16 18 21 21 20 20 21 21 21 21 22 21 20 20 17 12 9 10 11 12 12 11 11 11 12 12 13 13 12 12 13 14 16 17 17 18 17 17 17 16
10 10 10 10 13 17 18 20 31 48 62 69 74 76 73 69 68 69 69 62 58 61 60 54 52 58 64 69 77 82 80 78 81 84 81 75 69 61 50 41 39 39 35 33 34 31 24 24 31 31 24 21 24 26 28 29 28 27 26 23 18 13 9 9 11 12 12 12 12 12 13 14 13 13 13 12 12 14 15 17 18 18 19 18 17 17 17
10 10 11 11 11 13 15 16 22 30 40 50 58 58 56 57 62 66 69 69 70 74 75 73 75 79 80 78 80 80 77 74 75 75 71 66 61 57 50 42 38 39 39 40 42 37 32 36 39 28 16 15 22 27 32 35 32 26 26 25 21 17 17 18 17 14 13 13 13 13 15 15 14 14 13 12 12 15 17 19 19 19 19 18 17 17 17
11 12 12 12 13 14 15 18 23 26 30 38 44 44 45 53 63 69 73 77 81 85 87 87 87 87 86 85 85 83 81 79 76 74 71 65 60 57 53 46 41 41 43 44 43 39 38 41 34 17 6 8 15 22 31 36 32 27 27 29 27 23 20 19 17 13 13 14 15 16 17 18 17 16 15 14 13 14 16 19 20 20 19 19 18 17 16
13 15 14 13 15 20 25 30 33 33 31 32 35 40 49 62 72 77 80 85 89 92 91 89 89 89 89 89 88 88 86 83 81 78 75 69 65 61 54 47 46 48 48 45 44 45 44 35 18 4 2 7 12 20 30 34 33 32 31 31 29 23 16 14 15 15 16 18 18 18 18 19 18 16 15 13 13 14 15 18 21 21 20 19 18 17 16
17 19 19 18 18 22 26 27 28 28 26 22 23 31 45 62 79 91 95 96 95 95 95 95 96 96 94 93 92 91 89 88 86 83 77 74 73 69 63 58 58 56 51 48 50 51 40 20 4 -0 4 9 16 27 34 36 36 35 33 33 33 27 17 13 16 21 28 34 33 27 24 23 22 18 15 13 13 13 13 17 21 21 20 20 19 17 14
21 21 23 22 19 20 22 19 15 12 11 11 14 22 35 52 71 86 92 92 91 92 92 95 97 98 98 100 100 98 98 98 95 89 84 80 77 73 71 70 67 60 56 57 55 42 21 5 -0 4 8 12 21 33 39 38 37 37 36 37 39 36 32 30 31 35 41 46 44 41 41 38 31 23 17 14 12 12 14 18 22 23 21 21 20 18 14
29 28 28 25 19 15 13 12 8 7 7 9 12 20 32 46 61 71 75 78 83 86 87 90 94 95 95 97 97 96 95 95 94 92 90 86 82 79 78 75 70 67 68 65 48 22 4 -0 4 8 11 17 25 35 40 40 41 43 43 42 43 45 49 52 53 53 54 51 48 49 51 45 35 27 21 16 12 13 18 23 25 24 23 22 21 19 16
36 34 31 26 18 10 7 8 8 8 8 11 16 24 34 43 51 59 65 70 75 77 77 81 86 88 89 92 96 98 98 98 97 94 89 85 84 83 77 73 74 74 66 47 22 4 -0 5 9 10 16 25 32 38 44 47 46 47 48 47 48 53 58 61 63 64 61 53 47 46 46 41 33 28 25 22 19 20 25 28 27 25 24 24 22 20 17
39 34 24 16 9 3 4 9 10 7 6 12 19 26 33 38 41 46 51 55 57 58 62 69 76 79 79 80 84 88 92 96 98 99 97 96 96 91 84 83 84 68 36 10 -0 2 7 14 20 25 32 41 45 47 50 52 51 51 53 55 57 61 66 69 71 71 66 58 48 40 36 33 30 27 25 25 24 25 27 29 29 28 27 26 25 22 17
39 29 15 7 6 5 5 9 9 6 6 11 17 22 30 36 40 42 47 50 52 53 54 58 63 68 71 74 77 78 80 82 86 90 89 85 85 89 92 91 77 43 7 -3 13 26 26 27 35 43 49 55 59 59 58 59 60 61 63 64 66 69 72 73 73 72 70 68 59 44 33 29 28 25 25 26 27 28 29 30 29 29 28 25 22 19 15
30 19 9 6 7 7 6 7 8 6 6 9 15 22 28 32 37 45 53 60 64 63 61 64 71 77 79 79 81 83 85 85 88 90 84 71 66 74 77 63 36 9 -4 5 26 39 41 45 52 57 59 64 68 69 69 70 70 71 72 73 74 75 75 74 70 67 65 67 65 57 47 39 33 28 27 26 23 23 25 26 25 27 29 28 27 25 20
16 9 7 6 6 5 7 10 10 7 4 6 12 17 21 25 36 51 62 67 69 68 68 74 84 89 86 82 82 86 89 90 91 92 86 71 57 52 44 25 7 5 13 22 31 40 51 60 65 66 67 70 71 73 76 77 76 75 75 74 72 70 68 66 64 61 59 59 60 61 59 56 52 48 47 43 38 35 37 39 41 46 50 48 43 35 26
Wind_Speed
3 4 4 4 5 5 6 7 7 7 7 7 7 7 6 4 4 4 3 3 2 2 1 2 2 2 3 5 6 7 7 7 7 7 8 8 8 8 7 8 8 8 8 8 8 8 9 10 11 11 11 11 11 11 12 12 13 15 14 16 16 10 10 17 16 12 11 9 8 10 13 18 20 19 17 16 14 12 9 8 13 17 15 12 7 8 18
3 4 4 4 4 5 5 6 7 7 8 8 8 9 8 6 5 4 3 2 1 1 2 1 1 2 3 4 5 5 6 6 6 7 7 7 7 7 7 7 7 7 8 8 9 9 9 10 10 10 10 11 11 10 11 11 12 14 15 16 17 12 12 17 15 12 12 10 8 10 15 19 21 21 19 17 17 16 14 12 11 12 13 11 4 10 26
3 4 4 4 5 5 5 5 6 7 8 9 9 9 9 7 6 5 3 1 1 2 3 2 2 1 2 4 4 4 5 5 5 5 6 6 6 5 6 6 6 6 7 7 9 9 9 10 10 10 11 10 11 11 11 11 12 14 15 16 17 16 16 15 12 8 6 8 11 15 20 22 20 20 19 18 17 17 16 14 10 9 12 15 13 19 34
4 4 5 5 5 5 6 5 6 6 7 8 9 9 9 8 7 5 3 1 1 0 1 2 2 1 2 3 3 3 4 4 4 4 4 4 5 5 5 5 5 5 6 7 8 8 9 10 10 11 11 11 11 11 11 11 12 13 15 16 17 18 18 16 15 14 12 15 17 15 18 20 19 17 17 18 17 16 17 15 14 14 18 24 24 24 34
5 5 5 6 6 6 6 6 6 6 6 7 8 9 9 8 7 6 4 2 2 1 1 2 2 2 2 2 2 3 3 3 2 3 3 3 3 3 3 4 4 5 6 6 7 8 9 10 11 11 11 12 12 11 12 11 11 13 15 15 16 18 18 17 19 21 20 19 17 13 15 19 20 16 16 18 17 17 17 17 19 19 19 24 29 28 32
6 6 6 6 6 6 7 7 7 7 7 7 7 8 8 8 7 7 5 3 2 1 1 2 2 2 2 1 1 1 2 2 2 2 2 2 3 3 3 4 4 5 6 6 8 9 9 10 11 11 12 13 12 12 12 11 10 13 14 15 17 17 17 18 21 23 20 17 15 14 17 22 21 16 15 16 18 18 19 19 20 20 21 26 32 33 33
8 7 7 7 6 7 7 7 8 8 7 7 7 6 6 7 7 7 6 4 2 0 1 2 2 2 2 1 1 0 0 1 1 1 2 2 3 3 4 5 5 6 6 7 9 9 10 10 11 12 12 12 13 13 12 11 12 12 13 15 16 16 17 19 22 25 20 14 15 18 21 25 23 16 14 15 18 19 21 21 20 21 25 30 32 33 34
10 9 8 8 7 7 7 7 7 8 8 8 7 6 5 6 6 6 6 4 2 1 2 3 3 3 3 3 2 2 2 2 2 2 2 3 3 4 5 5 6 7 7 8 8 10 11 11 12 13 13 13 13 13 12 12 13 12 13 16 16 17 19 19 22 27 22 16 19 22 22 26 24 15 13 15 17 20 22 22 20 22 27 30 30 33 36
11 11 11 10 9 8 7 7 7 7 7 7 7 6 5 5 4 4 5 3 1 1 2 3 4 4 4 4 4 4 3 3 4 4 4 4 5 5 6 6 7 8 8 8 9 10 11 11 12 13 14 14 14 13 14 14 13 13 13 15 17 19 21 21 23 26 24 23 24 24 25 28 21 11 11 15 17 19 22 23 23 25 28 30 30 33 36
13 12 12 12 11 10 8 7 7 7 7 7 7 6 6 5 3 2 2 2 1 2 3 4 5 5 6 6 6 6 6 6 6 6 5 6 6 6 7 7 8 8 9 9 10 10 11 12 12 13 14 15 15 15 15 14 14 15 14 15 18 19 22 24 23 23 27 27 24 25 26 20 11 11 19 22 19 18 21 25 27 27 27 29 31 32 36
14 13 13 13 13 12 11 9 8 7 7 6 6 6 6 5 5 3 2 2 2 3 3 4 5 5 6 7 7 8 8 8 8 8 8 8 7 8 8 8 9 9 10 10 11 11 12 12 13 13 14 15 15 16 16 15 15 15 15 17 19 19 22 25 22 22 28 29 26 25 18 7 11 21 24 19 16 17 21 28 31 28 28 28 28 30 35
14 14 14 14 14 14 13 12 10 8 7 7 7 7 7 7 7 6 5 4 4 4 4 5 5 6 7 8 8 9 9 10 10 10 10 10 10 10 10 10 10 11 11 12 12 12 13 13 14 14 14 14 15 15 16 15 14 14 16 18 19 20 22 24 23 25 28 29 25 16 9 11 20 23 16 13 17 21 25 32 33 30 28 26 25 29 36
15 15 14 14 14 14 14 14 13 12 10 8 7 8 8 9 8 8 8 7 6 5 6 6 6 7 7 8 9 10 10 11 11 12 12 12 12 12 11 11 12 12 13 13 13 14 15 15 15 15 14 14 15 15 15 15 15 16 17 18 19 20 20 23 25 24 23 23 16 9 15 25 22 13 11 16 21 25 30 36 36 32 28 25 27 35 39
17 16 15 14 14 14 14 14 14 14 13 12 10 9 9 9 9 9 9 8 7 7 7 7 7 8 9 9 10 10 11 11 12 12 12 12 12 12 13 13 13 13 14 14 15 15 16 16 16 16 15 14 13 13 14 16 17 18 18 18 19 19 20 23 23 19 18 21 21 22 27 26 17 13 17 21 24 29 33 37 39 33 25 25 32 38 40
19 19 17 16 15 14 14 14 14 14 14 14 14 12 11 10 10 11 11 11 9 9 9 9 9 9 10 10 11 11 11 12 12 12 13 13 13 13 14 14 14 14 15 15 15 16 17 17 18 17 15 14 14 15 16 17 19 20 19 19 20 20 22 22 20 18 19 21 22 21 18 15 16 20 22 23 28 31 32 37 38 30 25 31 37 39 41
21 21 20 18 17 16 15 15 14 13 13 14 15 15 14 13 12 12 12 12 11 10 10 10 10 11 11 11 11 12 12 12 12 13 13 13 13 13 14 14 15 15 16 16 16 16 17 16 17 17 16 16 17 17 17 18 19 20 20 22 23 24 24 22 20 21 21 18 15 10 8 15 23 23 22 26 30 32 33 34 33 30 32 38 40 39 42
22 22 22 21 19 18 17 16 15 14 13 13 14 15 15 15 15 14 13 13 12 12 12 12 11 11 11 11 12 12 13 12 13 14 14 13 13 14 14 15 15 15 16 16 16 17 16 16 18 18 17 17 19 19 18 18 19 21 23 25 26 27 26 22 20 21 20 19 17 16 18 23 23 21 25 30 31 32 28 22 26 35 38 37 38 40 41
23 23 23 23 22 20 19 18 17 16 15 14 14 14 15 15 16 16 15 15 14 13 14 14 13 12 12 13 13 13 13 13 13 14 15 13 13 14 15 15 15 16 16 16 16 16 17 16 17 18 18 18 18 17 17 18 20 23 25 27 29 29 26 22 21 21 19 17 20 26 30 26 21 24 32 33 31 31 25 21 31 39 37 35 38 39 39
25 24 24 24 24 23 22 21 20 19 17 16 15 15 15 15 15 16 16 16 16 15 15 15 15 14 14 14 13 14 14 14 14 15 16 15 14 15 15 15 15 16 16 15 15 16 17 16 15 16 18 18 18 18 19 21 22 25 27 27 27 26 24 23 22 20 17 17 20 27 28 25 26 33 36 32 31 31 29 33 38 37 35 37 38 37 38
26 26 25 25 25 24 24 23 22 21 20 18 17 16 16 15 15 15 16 16 16 16 16 16 16 15 15 15 14 14 15 15 15 16 16 15 15 15 16 16 15 15 15 15 15 15 17 17 16 16 18 19 20 21 25 26 25 25 26 28 28 26 24 23 21 18 17 17 17 19 22 27 32 35 33 32 33 34 36 39 38 35 36 38 36 36 38
28 27 26 26 25 25 25 25 24 24 23 22 20 18 17 17 16 16 16 16 17 16 16 16 16 16 16 16 15 15 15 15 15 16 16 16 16 16 17 16 16 16 17 18 18 17 18 19 19 19 20 21 23 25 27 30 31 28 25 27 30 28 24 23 24 23 21 20 19 21 25 29 31 32 32 35 36 36 38 39 38 36 36 35 36 37 37
31 29 28 27 26 26 26 26 26 26 25 24 23 22 20 19 18 18 18 17 18 17 17 16 16 16 16 16 16 16 15 15 16 16 16 16 16 16 17 17 18 19 19 19 20 19 20 21 21 22 23 24 26 27 28 31 34 32 28 27 29 29 29 31 33 32 30 29 29 28 26 26 29 34 38 38 37 36 36 37 36 34 33 34 35 36 36
33 32 30 28 27 26 26 27 27 27 27 27 26 25 23 22 21 21 20 19 19 19 19 18 18 17 17 16 17 17 17 17 17 17 17 18 18 18 18 18 19 20 19 19 20 21 22 22 23 25 26 25 27 29 30 32 35 35 32 30 30 34 37 38 38 38 38 36 31 28 27 29 34 39 40 39 38 37 35 34 33 32 32 33 34 35 36
34 33 32 31 29 27 26 26 27 28 28 28 28 27 26 25 24 23 22 22 22 21 20 19 18 17 17 17 17 18 17 17 18 17 18 19 19 18 18 17 19 20 19 20 21 22 23 24 24 26 27 26 27 30 31 33 35 34 34 33 34 37 40 39 39 42 42 37 31 29 31 34 37 40 41 40 39 37 33 32 31 29 30 32 32 34 36
37 35 33 33 31 29 27 26 26 27 28 29 29 29 29 28 27 26 25 24 24 24 23 21 19 19 19 19 18 18 18 18 18 18 18 19 19 19 19 18 19 20 20 21 22 23 24 25 25 27 28 27 28 30 31 32 34 35 37 37 36 38 41 41 41 42 41 39 36 36 35 34 35 39 41 40 38 34 30 28 28 28 29 31 32 34 36
41 38 35 34 32 31 29 28 27 27 28 29 30 30 30 30 29 29 28 27 26 27 27 27 24 23 23 23 22 21 20 20 20 20 19 20 20 21 20 19 20 20 21 22 22 23 24 25 26 27 28 28 29 32 33 34 34 37 40 39 37 38 41 40 40 41 43 43 41 41 41 39 36 38 40 40 38 33 28 26 27 27 28 31 32 33 35
42 40 37 35 34 32 31 29 28 28 28 28 29 30 31 31 31 31 30 29 28 25 24 23 20 19 19 20 19 19 19 19 19 19 19 20 20 20 20 20 21 21 22 23 24 25 26 27 27 27 28 29 31 34 36 36 36 39 41 38 36 37 38 38 39 42 44 44 42 42 45 43 39 38 40 40 37 32 28 26 26 27 28 31 32 34 35
43 42 39 37 35 33 32 30 30 29 29 28 28 29 30 30 31 31 31 31 30 28 27 27 26 26 26 24 22 22 22 22 22 22 23 23 23 22 23 23 23 24 24 25 26 27 27 28 29 29 29 30 31 34 37 38 38 40 40 38 36 36 37 39 41 43 45 44 41 40 42 41 37 36 38 39 36 31 27 25 25 27 28 30 33 34 36
42 42 42 40 37 35 33 31 30 30 30 30 29 29 29 29 30 31 31 31 32 32 32 34 34 34 34 32 30 30 29 28 28 28 27 27 26 26 26 26 26 26 26 27 28 29 30 31 31 30 30 30 31 35 38 38 39 42 39 36 35 36 38 40 42 44 45 42 38 38 38 36 34 35 37 37 34 29 26 25 25 27 29 30 32 34 36
40 42 43 42 40 39 36 32 30 30 30 30 29 29 28 28 29 30 30 31 31 32 33 34 36 36 36 36 35 34 33 32 32 32 31 31 30 30 29 29 29 29 29 30 30 30 31 32 31 30 31 30 31 36 38 37 41 42 36 32 35 38 41 42 43 44 44 39 36 38 37 32 32 34 35 34 30 26 25 25 26 27 29 31 32 34 37
38 41 43 43 41 39 37 34 31 30 29 29 29 28 28 27 27 27 28 28 29 30 31 33 35 37 38 39 38 38 37 37 36 35 35 34 33 33 32 31 30 30 29 29 30 30 32 33 32 32 33 32 33 38 38 37 42 41 34 32 37 42 43 44 45 45 41 36 36 38 35 30 31 35 34 32 28 25 25 26 27 28 30 31 33 35 37
36 39 43 43 42 40 38 35 32 31 30 30 28 27 26 26 26 26 26 26 27 28 29 31 33 35 37 39 39 39 38 38 38 37 36 36 35 34 33 32 31 30 30 30 32 33 35 35 34 35 36 37 38 41 41 40 42 41 36 36 40 44 45 46 46 42 35 32 35 38 35 32 33 35 35 33 29 26 27 29 29 30 31 32 33 35 38
35 37 41 42 42 40 40 38 35 32 32 31 29 27 27 27 27 26 26 26 27 28 29 30 32 34 36 38 40 40 39 38 38 38 38 38 37 36 36 34 33 33 33 34 34 36 38 39 38 38 40 42 43 44 44 44 42 40 39 40 43 45 46 44 41 36 30 28 32 36 35 34 35 35 35 34 31 29 31 32 31 32 34 34 34 36 39
35 36 39 41 41 40 40 38 37 35 34 33 31 29 27 27 28 27 26 26 27 28 30 32 33 35 37 39 41 42 41 40 39 39 39 39 38 37 37 36 35 36 36 35 36 39 41 41 40 41 44 46 45 46 47 46 42 40 41 43 44 44 43 40 36 34 31 29 31 33 34 34 33 32 32 33 32 31 32 33 33 34 35 36 36 38 40
34 35 38 40 40 40 39 37 37 37 36 35 34 33 31 30 29 28 27 27 28 29 31 32 34 37 39 40 42 43 41 40 40 39 38 38 38 37 36 36 36 36 36 36 39 42 42 40 41 44 47 49 49 50 49 46 42 40 42 43 41 40 39 37 35 33 32 31 32 33 33 32 31 30 30 32 32 31 33 34 34 35 37 38 38 39 41
32 34 36 38 39 39 37 35 34 35 35 33 33 33 33 33 32 30 29 30 31 32 33 33 36 41 43 42 43 44 42 41 41 39 37 37 37 35 34 35 36 35 35 37 41 43 42 41 42 46 50 53 54 52 48 45 42 40 39 39 37 35 35 35 34 34 33 33 32 33 33 31 30 29 29 31 32 32 34 35 35 36 38 39 39 40 42
31 32 34 37 39 38 35 32 31 32 33 32 31 31 33 35 35 34 33 33 33 34 35 37 42 45 44 42 43 44 44 44 43 41 38 37 36 35 34 35 34 34 36 40 42 42 41 41 43 48 54 57 56 52 47 44 41 38 36 35 36 36 37 37 35 36 37 35 32 31 33 31 29 28 29 30 31 32 33 34 35 36 38 40 40 41 43
30 30 32 34 36 36 34 32 31 31 31 30 29 28 29 31 34 36 37 37 37 38 40 43 46 48 46 43 44 44 44 43 43 41 38 36 34 33 32 32 31 31 34 39 40 39 40 41 43 49 56 58 55 50 46 43 40 39 37 35 35 37 40 39 35 34 36 35 32 32 35 33 30 28 29 29 31 32 32 33 34 36 38 40 41 42 43
28 28 30 31 33 34 35 34 32 30 29 27 25 23 22 23 27 31 34 35 37 39 41 43 46 47 45 43 45 44 42 40 41 40 37 35 33 31 30 29 28 28 32 37 39 38 39 40 42 50 59 61 55 50 48 46 43 41 38 36 36 37 39 38 34 30 31 33 33 34 37 35 32 30 29 30 32 33 33 32 33 34 37 39 41 42 43
27 27 28 29 30 31 34 35 34 32 29 27 26 27 28 29 31 31 33 35 37 37 38 40 43 43 42 41 42 41 38 37 37 36 35 34 32 31 31 30 27 26 31 36 37 37 38 39 43 51 60 62 55 51 50 49 46 43 40 38 35 33 33 35 33 31 31 32 33 33 34 33 30 29 30 33 35 36 34 32 32 34 36 38 40 41 43
27 27 27 28 28 29 31 33 34 34 32 30 29 31 34 36 37 36 36 38 38 36 35 37 38 37 36 35 35 34 32 31 30 30 31 31 30 29 31 30 27 27 32 35 35 35 36 39 44 51 57 55 50 47 48 48 46 44 42 37 29 25 28 33 35 33 31 31 30 29 27 26 25 27 31 37 39 38 36 33 32 33 36 37 39 40 42
27 27 27 28 27 27 28 29 30 32 33 32 33 35 37 37 36 35 34 34 34 33 32 33 33 31 29 29 28 28 26 25 24 24 25 26 25 26 27 26 25 27 30 32 32 33 34 38 44 51 52 49 47 47 48 48 45 41 36 31 26 25 28 33 35 32 28 28 28 27 24 22 24 28 33 37 38 38 36 34 33 34 35 36 38 40 41
27 27 27 27 26 26 27 28 28 28 29 29 31 35 37 36 33 31 28 27 26 25 25 25 25 26 25 25 25 24 23 21 20 20 21 22 22 23 23 24 25 26 28 30 32 33 36 42 47 48 46 46 48 49 49 46 42 36 31 29 30 30 28 27 26 25 23 24 26 26 25 26 28 32 36 38 38 38 36 34 34 34 35 36 38 40 41
26 26 26 26 25 24 25 27 27 28 30 31 33 36 37 33 29 26 24 22 21 20 19 18 19 20 21 20 21 21 21 19 19 20 20 21 22 22 22 24 25 26 28 30 33 36 41 44 42 39 40 43 47 48 46 44 41 37 31 29 29 27 23 19 20 22 25 28 29 28 29 31 35 37 39 39 38 37 37 35 34 34 35 36 39 41 42
25 24 24 25 24 23 24 27 28 30 34 37 39 39 39 34 28 24 21 18 17 18 19 20 21 21 20 19 20 22 21 20 20 20 20 21 22 23 24 25 26 28 30 31 34 40 45 42 35 33 39 45 48 47 45 41 38 36 33 31 31 28 25 23 25 30 36 40 40 38 37 39 40 41 41 39 36 36 37 37 35 34 35 38 41 42 43
24 24 23 24 26 26 27 30 33 36 38 40 40 40 39 37 34 30 28 25 25 25 26 27 27 27 26 26 26 28 28 26 24 23 22 22 24 26 26 27 28 30 31 34 39 46 48 41 34 37 44 47 47 44 40 35 34 36 37 37 37 35 34 34 36 39 42 44 46 47 47 45 43 41 39 36 34 34 36 36 34 34 36 39 42 43 44
25 25 24 25 28 31 33 35 38 39 39 39 41 41 40 38 36 35 33 33 32 31 31 31 30 31 32 31 32 33 33 32 30 29 27 26 27 27 27 28 31 32 34 39 46 48 45 40 39 43 47 47 46 44 41 39 40 43 41 39 39 41 43 43 44 43 42 42 45 48 50 48 44 40 37 34 33 33 33 33 33 34 37 40 41 42 44
25 26 27 29 33 37 39 39 39 38 38 38 40 41 42 42 41 39 37 36 35 34 33 32 32 32 32 32 31 31 30 28 28 28 28 27 27 28 28 30 33 36 41 47 49 46 43 43 46 47 48 48 49 49 47 46 46 44 42 41 43 47 48 48 47 45 41 37 38 41 44 45 44 42 39 37 35 33 31 31 33 36 37 39 40 42 46
26 29 32 36 39 42 42 41 40 40 40 40 40 41 42 43 44 43 42 41 40 39 38 37 35 36 36 35 35 35 34 32 29 27 25 25 28 29 28 30 36 43 48 50 49 46 45 46 47 47 47 48 48 48 47 47 46 46 46 48 49 50 50 50 49 46 43 40 38 39 40 40 41 42 41 40 38 35 33 33 35 37 39 41 43 47 50
31 34 38 41 43 44 43 42 42 43 43 42 43 43 42 43 44 44 43 42 41 39 38 37 36 35 35 34 35 38 39 37 35 34 34 35 36 34 33 38 47 51 50 48 48 47 47 47 47 47 47 47 46 46 48 49 50 52 53 53 53 53 52 50 48 46 45 44 42 41 40 39 39 39 41 42 42 40 38 37 37 39 42 46 50 54 55
36 40 43 44 44 44 43 43 44 45 44 44 45 45 45 45 45 44 42 41 40 40 39 37 34 32 32 33 34 34 33 33 34 37 40 44 45 44 47 54 58 55 52 51 52 53 52 51 51 51 51 51 50 50 51 53 54 56 57 57 56 56 54 52 51 51 50 47 44 43 42 42 42 43 45 46 47 48 47 47 46 48 51 55 56 56 55
43 46 46 45 45 45 45 45 46 46 46 46 46 46 47 48 47 45 44 44 44 44 42 40 36 34 35 36 36 33 33 34 36 39 44 47 50 52 57 60 59 56 55 56 58 58 57 56 56 55 56 57 57 57 58 59 60 61 61 61 62 62 61 61 61 60 59 56 53 50 48 46 46 47 48 49 51 53 54 55 55 56 57 58 57 55 54
Wind_Direction
7 8 14 17 20 28 33 35 33 29 31 32 29 25 21 21 26 30 40 38 30 36 49 76 84 78 92 100 100 99 95 93 89 84 81 77 74 73 68 61 58 54 49 43 40 38 33 32 30 25 23 17 10 5 1 0 2 3 4 4 4 2 350 347 347 349 347 332 317 316 324 332 332 332 334 330 330 330 320 306 306 307 306 305 276 257 312
345 350 358 359 1 8 14 23 28 27 29 31 31 30 27 29 26 18 27 33 12 65 88 83 98 115 115 111 107 103 100 96 89 86 83 78 76 73 64 61 57 49 46 41 35 32 29 25 22 20 17 10 5 358 353 353 352 353 356 358 2 4 353 347 345 346 347 344 338 321 319 325 324 324 329 328 327 322 315 314 309 299 306 316 272 264 310
318 325 337 344 345 349 353 3 12 17 22 25 28 31 30 33 33 20 13 2 358 110 115 109 106 132 138 124 115 106 102 100 94 88 84 79 76 70 60 58 51 43 39 33 30 28 22 17 14 13 9 2 359 353 347 345 344 347 351 353 355 355 353 351 345 341 335 322 318 313 313 318 319 319 322 322 322 316 311 311 297 283 300 302 283 284 311
297 308 317 327 333 336 339 345 351 0 10 14 22 29 29 33 35 26 15 348 325 263 181 158 136 142 150 132 122 115 105 101 99 90 85 79 71 66 58 49 42 37 29 22 21 18 14 11 7 5 2 356 352 348 343 339 339 342 346 347 348 348 350 348 335 329 323 312 310 307 303 310 318 319 316 314 314 309 306 300 288 292 297 298 304 306 311
276 290 301 311 321 326 330 333 336 343 353 360 12 22 24 30 34 30 28 12 351 344 212 186 165 162 162 140 124 121 110 100 98 83 77 75 63 55 42 33 30 24 14 11 8 4 5 4 360 358 355 349 346 342 338 335 335 339 340 342 343 341 343 342 331 330 333 323 315 309 302 311 319 314 305 307 306 302 300 297 301 306 293 296 316 319 311
274 275 282 293 305 313 321 326 327 330 338 346 357 8 17 27 32 33 36 28 11 19 189 197 194 194 185 165 142 127 107 95 88 73 63 53 42 31 16 12 11 3 359 356 354 352 352 354 354 351 347 344 343 339 335 332 333 335 334 335 336 334 336 335 328 332 339 328 318 320 318 319 318 303 292 298 300 300 302 304 309 304 285 297 318 318 313
284 280 275 276 286 296 306 315 320 323 326 332 341 352 8 22 29 30 32 35 31 325 223 207 207 215 222 225 225 233 38 48 33 22 20 14 12 7 360 358 354 350 348 344 344 343 341 341 343 343 341 339 338 336 333 329 328 328 327 328 330 327 328 331 327 332 344 340 329 331 326 321 317 298 279 287 296 302 305 308 313 305 298 310 318 313 319
291 289 284 276 274 279 288 298 306 314 317 320 327 334 350 9 22 25 20 22 31 334 253 227 226 232 241 253 259 277 298 317 332 336 338 343 348 349 347 346 342 340 338 336 336 336 334 331 330 333 335 333 332 331 328 325 321 321 322 323 324 322 324 328 326 329 343 352 338 333 326 321 316 294 272 280 289 299 306 311 316 312 312 320 317 311 324
295 294 293 288 280 273 273 280 286 295 304 307 310 316 327 344 3 17 13 11 15 328 276 252 248 245 250 261 264 268 279 292 304 309 313 319 327 332 334 334 332 331 331 329 329 329 330 327 325 326 327 326 325 322 323 321 316 316 320 319 322 323 321 326 327 325 334 345 339 333 327 320 313 297 292 295 289 296 310 315 318 319 319 320 314 313 326
296 297 296 294 292 285 276 271 270 275 286 293 295 298 303 311 319 343 355 349 330 307 284 272 267 260 259 264 264 266 271 278 288 294 297 303 311 317 320 323 323 323 323 323 323 324 326 325 322 321 320 321 320 318 320 320 312 311 316 318 322 323 322 328 328 319 326 337 337 332 328 321 313 316 317 313 301 297 308 316 322 327 324 316 313 319 330
293 296 297 297 297 295 289 281 271 264 267 273 276 277 279 282 282 280 285 290 280 278 278 276 274 269 268 267 265 267 271 274 280 285 288 292 299 303 308 312 314 315 317 318 319 319 321 322 319 317 315 314 316 316 318 319 313 308 312 316 321 323 323 327 325 316 322 332 334 333 332 320 319 322 316 312 307 302 309 318 324 329 326 316 313 322 330
287 291 294 297 297 297 296 293 285 276 267 261 261 262 262 263 266 266 264 261 257 258 261 266 270 271 270 271 269 268 270 273 276 280 284 288 292 296 301 304 307 308 310 313 315 315 317 318 315 314 313 311 313 314 314 318 315 310 314 316 318 322 324 324 323 318 320 329 337 341 332 320 325 323 314 310 315 316 318 321 325 329 326 318 315 325 331
282 285 288 292 294 296 297 296 294 291 284 275 268 263 257 255 257 257 256 253 249 248 251 258 265 267 268 270 270 270 271 274 277 278 281 284 287 291 295 298 301 304 306 310 312 312 314 315 313 313 312 309 309 310 312 318 318 316 318 317 317 322 323 322 323 321 319 325 331 319 316 328 337 333 316 318 323 327 326 323 327 332 327 320 325 330 331
277 279 282 286 289 291 293 295 296 296 294 290 286 277 266 261 258 254 252 251 248 245 248 255 258 262 266 268 268 271 273 275 278 279 280 282 284 288 291 295 298 300 303 306 308 310 311 313 313 313 313 311 311 312 313 317 319 319 319 319 319 321 321 321 321 320 316 313 310 309 319 332 347 340 328 329 331 333 329 324 328 334 329 325 329 330 329
273 274 276 279 283 286 288 290 292 295 297 296 294 290 284 277 269 261 257 255 250 247 249 253 256 257 261 263 266 271 273 275 278 279 280 282 284 287 290 293 294 297 300 303 305 308 310 312 313 316 317 316 314 314 313 314 316 318 321 322 322 320 320 320 315 311 310 308 311 319 323 327 335 335 334 334 333 333 328 321 325 334 333 328 328 328 330
272 272 272 273 276 280 283 285 286 289 292 295 297 296 294 289 284 277 270 264 259 256 255 253 251 252 256 260 264 267 268 272 276 277 278 281 284 286 288 289 291 294 297 299 302 305 307 308 310 311 312 311 309 309 311 311 313 318 321 322 323 321 318 316 309 307 310 305 301 298 286 309 329 335 335 334 332 330 327 321 324 333 333 328 328 329 331
270 270 270 270 270 272 276 279 281 283 286 290 295 297 297 295 292 288 282 276 270 265 261 257 252 252 255 256 259 264 267 270 273 274 277 278 280 284 285 287 290 293 294 296 300 303 304 306 308 307 305 306 307 306 308 309 311 317 320 321 322 320 316 312 307 307 308 302 293 287 295 315 330 335 333 332 328 326 326 321 323 329 330 328 328 328 329
268 268 268 268 267 267 269 272 276 278 280 284 289 293 297 297 296 294 290 286 281 274 269 266 260 258 258 258 261 265 267 269 271 273 277 278 280 283 285 286 289 291 292 296 300 302 303 304 307 307 303 305 307 304 303 306 311 316 319 319 318 318 314 310 307 307 305 297 291 297 308 323 336 333 330 329 324 323 322 317 321 327 328 327 326 327 329
266 266 266 266 266 265 265 267 269 272 275 277 281 287 293 295 296 297 295 292 289 284 278 274 270 267 264 263 265 266 267 270 272 273 278 281 282 284 285 287 290 291 293 296 299 301 302 304 307 306 301 304 306 301 298 303 308 312 315 314 313 314 312 307 306 307 303 296 294 301 312 328 334 328 326 324 320 319 318 318 324 327 327 326 326 328 329
266 265 265 264 264 263 263 263 265 267 270 272 275 279 285 290 293 295 295 293 291 288 285 282 279 277 273 270 269 270 270 271 273 275 279 282 283 284 287 289 291 293 295 297 299 300 300 302 305 302 298 302 303 299 300 304 306 309 312 311 310 309 305 303 306 309 305 298 298 303 313 326 328 325 322 319 317 317 318 320 325 327 326 326 326 329 330
266 265 264 263 262 262 262 261 262 263 265 267 270 272 277 282 287 291 292 291 290 289 287 284 283 282 280 278 276 274 273 273 274 275 278 280 281 283 286 289 291 293 295 297 298 298 297 297 299 297 296 299 299 298 301 304 305 307 311 310 308 306 302 300 304 306 300 293 298 311 320 326 327 322 317 317 318 319 319 321 324 327 325 325 326 329 330
267 266 264 263 261 261 261 260 260 261 262 262 265 267 271 275 279 284 287 288 288 288 286 284 283 281 281 281 279 277 276 276 275 276 278 280 281 281 283 286 288 289 291 293 294 294 294 294 296 296 296 297 298 298 300 301 301 305 310 308 304 304 304 304 304 304 300 298 308 321 327 327 323 318 317 319 321 321 321 320 323 324 323 324 326 329 330
267 267 265 263 261 260 260 260 259 260 260 260 261 263 266 269 272 276 280 283 284 286 284 283 282 281 280 279 278 277 278 277 276 278 278 279 280 281 282 284 285 286 288 290 291 292 292 293 295 295 295 298 299 299 299 298 299 303 306 305 305 306 306 306 308 309 309 310 319 329 328 325 323 319 320 323 324 325 324 322 321 323 323 324 326 327 329
265 266 266 265 263 262 261 260 260 259 259 260 261 261 261 264 267 271 275 279 281 282 283 281 281 280 279 276 275 276 277 276 277 278 278 279 281 282 283 284 285 287 289 290 290 291 292 293 294 294 296 299 299 297 298 298 300 303 303 304 308 309 307 307 310 311 309 313 325 331 327 327 326 322 321 325 327 327 325 321 320 322 322 323 325 327 329
262 263 264 265 265 264 263 262 261 260 259 259 260 261 261 262 263 266 270 274 277 279 279 278 277 278 278 276 276 277 276 277 277 277 278 280 281 282 283 284 285 287 289 291 291 291 291 292 293 294 297 300 298 297 297 298 300 300 299 303 308 306 304 306 311 311 309 314 326 331 327 326 325 320 320 324 326 325 322 318 318 320 321 323 326 328 329
264 260 260 263 265 265 265 264 263 261 260 259 258 259 260 261 262 263 265 269 273 277 278 278 277 276 274 273 274 275 276 276 277 278 279 280 281 282 284 284 285 288 290 291 291 291 291 291 292 295 298 299 298 298 297 297 297 296 296 301 305 303 303 309 313 312 312 318 329 333 328 324 323 320 317 319 322 321 318 316 318 320 322 325 327 328 330
269 263 259 260 263 264 265 266 265 263 261 260 258 257 258 260 261 262 264 266 269 272 275 276 277 275 273 273 275 276 276 275 276 278 281 283 284 285 285 286 288 289 290 290 291 290 291 292 293 296 297 297 297 297 296 296 296 294 296 302 306 305 308 312 312 311 315 323 331 332 325 321 321 317 313 314 317 317 316 317 319 321 323 325 327 329 331
273 269 261 256 258 262 264 266 267 266 263 261 260 258 258 258 259 261 262 264 265 266 268 270 272 272 273 275 277 277 277 277 277 279 282 284 286 286 286 287 288 288 289 290 291 290 291 292 293 295 296 296 296 295 294 295 295 294 298 306 311 311 312 314 314 316 320 325 329 326 319 316 316 310 306 309 312 312 313 317 319 321 323 324 326 329 331
273 273 267 259 255 256 259 262 265 267 267 264 262 260 259 259 258 259 261 262 264 266 267 269 270 271 273 274 275 275 276 277 278 280 282 283 285 286 286 287 288 289 290 290 290 291 291 291 292 294 295 296 296 294 293 295 295 296 303 312 315 315 317 318 319 321 321 323 324 319 312 311 311 304 301 304 307 308 310 315 319 321 322 322 324 328 331
273 273 271 265 258 255 255 257 260 263 267 268 265 262 261 261 260 259 260 262 264 266 268 270 270 271 271 272 273 274 275 277 278 280 281 282 283 284 285 286 287 288 289 289 289 290 290 290 292 294 294 295 294 291 291 295 296 299 310 321 319 317 319 320 320 321 321 321 319 312 307 307 305 299 296 300 304 305 307 313 319 320 320 320 323 327 329
274 273 272 269 264 258 255 255 255 257 261 265 267 266 265 264 262 261 262 264 265 266 268 270 270 271 271 271 271 272 273 275 276 278 280 281 283 284 284 286 286 286 287 288 288 289 289 290 293 294 294 295 292 288 290 294 295 301 316 325 319 317 319 320 320 323 322 318 311 306 304 302 298 294 295 299 302 301 303 309 316 318 317 318 321 325 328
277 274 272 271 267 262 257 255 254 254 255 259 264 267 267 266 265 264 264 266 267 268 269 270 271 271 271 271 271 271 273 273 274 276 278 280 281 282 283 284 285 286 287 287 288 288 288 289 291 293 293 292 289 287 289 291 293 302 316 320 316 318 320 319 321 323 320 313 306 304 303 302 299 298 300 302 301 298 299 305 312 315 316 317 319 323 327
280 275 272 271 269 265 261 259 258 256 255 257 261 265 267 268 267 267 267 267 267 269 271 271 271 271 271 272 272 272 273 273 274 276 277 278 279 280 281 282 283 284 285 285 287 288 288 289 292 292 291 289 287 287 288 289 295 306 314 313 314 318 319 320 322 322 315 306 303 303 304 304 303 302 302 302 300 296 296 302 309 313 315 317 319 322 325
284 278 273 271 269 267 263 262 261 260 258 256 258 262 265 267 267 268 268 268 268 268 268 269 270 270 271 272 273 273 274 275 275 276 276 277 278 279 280 281 281 282 283 285 285 285 286 289 291 290 288 288 286 284 287 293 303 311 312 310 314 319 319 321 325 324 316 309 306 306 306 306 304 303 302 301 298 295 295 300 307 311 314 316 318 321 324
286 281 276 271 269 268 266 264 263 262 261 260 259 260 261 263 266 267 267 268 268 268 267 268 269 270 270 271 272 274 275 276 276 276 277 277 278 279 280 281 281 282 283 284 284 284 286 288 288 287 287 285 283 283 289 300 309 312 310 311 317 322 323 323 326 325 320 315 310 308 309 307 305 304 304 304 300 297 296 300 305 310 313 315 317 319 322
288 285 280 274 270 268 268 267 266 266 265 265 264 263 262 262 263 264 265 265 265 265 267 267 267 268 270 271 273 276 277 277 277 277 278 278 279 280 280 281 282 283 284 283 283 285 286 287 286 285 284 283 283 288 296 304 309 311 311 313 318 325 327 326 325 322 320 318 313 308 307 306 305 305 306 307 304 300 298 301 304 308 311 314 315 317 320
290 288 284 280 276 271 268 268 269 269 268 267 267 267 266 265 264 264 263 263 262 263 263 264 266 269 270 271 273 275 275 276 277 278 278 278 279 280 280 281 281 282 282 282 282 284 285 284 284 284 283 284 288 294 301 305 308 310 313 314 317 322 325 325 323 319 316 318 316 308 302 303 306 308 309 309 307 303 302 302 304 306 309 312 314 316 319
292 289 286 285 281 274 269 268 268 269 270 270 270 270 272 273 271 267 264 262 261 262 261 262 266 269 270 269 271 273 273 275 277 278 277 278 278 277 279 280 279 278 279 280 282 284 283 283 285 286 286 288 292 297 302 305 308 309 311 313 314 316 319 323 325 320 315 316 318 311 303 303 306 309 310 310 309 307 305 303 303 305 308 311 313 315 317
294 291 288 286 282 275 271 270 269 268 270 270 268 267 271 273 271 268 266 264 262 262 262 263 266 269 269 268 270 271 272 274 276 277 279 280 279 278 279 278 276 276 277 280 282 284 284 285 288 289 288 289 294 300 304 305 306 307 309 311 313 313 314 318 322 320 315 314 314 310 306 304 305 307 310 312 310 309 306 303 303 305 307 310 313 315 316
295 293 290 287 283 278 275 272 269 268 270 271 268 265 264 263 263 265 267 267 265 264 264 265 267 269 269 270 271 272 274 275 277 280 281 280 278 277 275 273 273 274 276 279 282 283 283 285 288 288 288 291 298 303 304 304 306 307 310 314 317 315 312 314 318 319 315 311 309 309 308 306 304 306 312 316 315 311 308 305 304 305 307 309 312 314 315
294 293 291 288 285 282 280 277 272 268 268 269 269 268 266 264 265 266 266 266 268 269 269 270 271 273 276 277 278 280 281 280 280 280 277 274 273 272 270 270 271 271 272 276 279 280 280 284 287 287 289 295 303 306 303 303 305 309 313 319 322 314 307 309 314 317 317 314 313 314 313 309 306 309 314 316 315 312 309 306 304 304 305 308 311 312 314
292 292 292 290 287 284 282 280 277 273 271 270 269 268 267 266 267 266 266 267 270 272 274 276 279 283 286 287 287 287 286 284 281 277 273 270 270 270 269 267 265 264 268 275 278 277 279 282 284 286 292 300 303 302 300 301 305 310 315 321 321 311 305 306 309 314 321 323 319 314 309 305 307 311 313 314 313 310 308 306 303 301 303 307 309 311 312
291 290 290 289 288 288 286 284 281 277 273 270 267 266 266 266 266 268 269 271 274 278 282 287 291 292 291 289 287 286 286 283 277 274 273 271 271 272 270 265 261 264 272 277 277 277 278 279 282 289 296 299 298 296 297 299 303 307 312 317 316 310 302 300 303 312 324 329 323 313 305 303 306 309 311 311 310 308 305 302 300 298 300 304 307 309 310
288 289 289 289 288 288 286 283 279 274 268 265 262 262 262 263 266 271 273 273 273 277 284 293 297 296 293 291 288 285 284 282 278 275 273 272 272 271 267 265 267 274 277 277 276 277 278 279 285 295 299 296 294 295 296 298 301 303 307 315 318 310 300 300 311 317 318 318 315 308 302 301 301 303 306 308 307 304 303 301 297 294 296 299 302 305 307
285 286 285 283 282 281 278 276 275 271 268 266 265 263 261 261 262 265 268 269 270 274 278 283 287 287 287 290 290 287 286 287 284 279 275 273 271 269 267 270 275 277 275 274 275 276 276 280 289 297 296 292 292 294 296 298 299 300 303 311 313 306 297 300 308 311 311 309 306 302 300 300 301 302 304 305 303 300 299 298 294 291 291 293 296 299 304
281 281 279 278 278 276 271 270 272 273 271 271 270 267 265 263 262 261 262 265 269 272 274 278 280 280 282 288 292 293 293 293 290 284 279 274 270 269 271 273 271 269 267 268 270 272 275 282 290 291 289 289 292 294 295 297 297 298 300 304 305 302 300 298 297 298 301 302 301 300 300 300 300 301 301 301 298 296 296 295 291 287 286 287 290 296 302
275 275 273 273 274 272 271 274 277 278 277 277 276 272 269 267 266 266 266 268 270 272 276 278 280 282 284 288 291 291 290 289 286 282 277 272 269 269 268 264 261 260 261 263 267 273 280 286 286 284 284 287 290 292 294 295 296 298 299 299 299 302 304 302 299 298 299 299 298 299 300 299 297 296 296 294 293 293 292 289 284 280 280 284 289 296 302
270 270 268 267 269 273 277 280 281 280 279 278 275 272 270 269 269 269 270 271 273 276 279 281 282 284 284 285 287 287 286 282 277 273 268 264 261 258 256 255 257 260 261 263 270 280 285 283 279 281 284 286 288 291 293 294 295 296 296 296 298 301 302 302 302 303 305 304 300 298 297 296 296 295 294 293 292 290 288 284 281 280 282 287 292 298 302
264 263 264 266 271 276 279 278 277 281 282 278 272 269 269 270 271 273 274 275 276 277 278 279 280 281 280 281 282 282 282 280 278 276 270 261 254 251 250 251 255 260 266 272 279 284 285 281 280 284 286 287 288 291 292 293 294 295 295 296 298 300 300 300 300 301 303 304 301 295 291 289 290 291 292 292 291 288 285 284 286 289 292 294 296 299 301
261 262 265 268 271 276 277 275 275 281 282 278 274 273 273 272 272 274 275 276 277 278 278 277 277 278 280 280 278 276 276 277 277 276 273 267 263 261 257 253 254 262 273 280 279 278 280 282 284 286 287 287 289 290 291 291 292 293 294 295 296 297 297 299 300 302 303 303 300 294 287 284 284 286 287 289 289 288 285 284 286 291 294 295 297 299 299
261 264 268 268 269 273 275 274 275 278 280 277 274 274 274 273 274 275 276 278 280 281 281 281 282 284 283 280 276 274 275 276 274 271 268 267 264 260 256 255 261 270 278 279 275 274 278 281 282 282 284 285 286 287 288 289 290 291 292 293 295 296 297 299 302 304 305 304 301 297 291 287 285 285 287 288 289 290 289 288 288 290 291 292 294 296 295
263 265 268 270 272 274 274 272 273 276 277 276 274 273 273 274 274 275 276 279 281 282 283 285 285 284 280 278 277 277 276 274 270 268 266 265 263 260 260 264 271 278 280 278 276 276 278 278 278 279 281 282 283 285 286 287 288 289 291 292 294 295 297 298 299 301 302 302 301 299 296 292 290 292 293 292 291 292 293 294 294 295 294 292 292 291 289